EW1552 Weather Reports


time (UTC)temp
F
wind
direction
speed
knots
gust
knots
rain 1hr
in
rain 24hr
in
rain mn
in
humidity
%
barometer
mb
20260505200018 68 258 14.8 23.5 0.00 0.00 0.00 57 1012.3
20260505194956 68 265 13.0 22.6 0.00 0.00 0.00 57 1012.5
20260505193929 68 240 13.9 26.1 0.00 0.00 0.00 57 1012.5
20260505192903 67 239 13.9 26.1 0.00 0.00 0.00 59 1012.6
20260505191852 67 257 13.0 26.1 0.00 0.00 0.00 58 1012.7
20260505185703 66 299 13.9 22.6 0.00 0.00 0.00 60 1012.7
20260505184711 66 259 13.0 23.5 0.00 0.00 0.00 61 1012.8
20260505182618 65 284 13.9 24.3 0.00 0.00 0.00 61 1013.0
20260505181548 65 254 15.6 26.1 0.00 0.00 0.00 62 1013.0
20260505180602 64 254 14.8 26.1 0.00 0.00 0.00 62 1013.0
20260505175607 64 265 13.9 25.2 0.00 0.00 0.00 63 1013.0
20260505174559 64 249 13.0 25.2 0.00 0.00 0.00 63 1013.0
20260505173536 63 259 13.0 25.2 0.00 0.00 0.00 65 1013.0
20260505172519 63 254 13.9 21.7 0.00 0.00 0.00 66 1013.1
20260505171451 63 269 13.0 24.3 0.00 0.00 0.00 66 1013.1
20260505170428 62 263 14.8 24.3 0.00 0.00 0.00 66 1012.8
20260505165428 62 250 13.9 23.5 0.00 0.00 0.00 67 1012.8
20260505164443 62 265 12.2 22.6 0.00 0.00 0.00 68 1012.8
20260505163448 62 267 12.2 21.7 0.00 0.00 0.00 68 1012.9
20260505153009 60 286 11.3 20.9 0.00 0.00 0.00 73 1012.8
20260505151951 60 252 12.2 22.6 0.00 0.00 0.00 73 1012.6
20260505150942 59 270 13.0 22.6 0.00 0.00 0.00 73 1012.7
20260505124350 59 248 13.0 23.5 0.00 0.00 0.00 76 1011.7
20260505123358 59 269 11.3 22.6 0.00 0.00 0.00 76 1011.7
20260505122358 59 307 13.0 25.2 0.00 0.00 0.00 76 1011.6
20260505121354 59 273 13.0 30.4 0.00 0.00 0.00 75 1011.5
20260505120356 59 262 13.9 30.4 0.00 0.00 0.00 75 1011.4
20260505115400 59 279 13.0 24.3 0.00 0.00 0.00 75 1011.4
20260505114356 59 266 12.2 25.2 0.00 0.00 0.00 74 1011.4
20260505113348 60 307 14.8 25.2 0.00 0.00 0.00 74 1011.3
20260505112356 60 291 13.9 24.3 0.00 0.00 0.00 74 1011.1
20260505111345 60 269 11.3 23.5 0.00 0.00 0.00 74 1011.1
20260505101248 61 270 10.4 22.6 0.00 0.00 0.00 73 1010.7
20260505100235 61 258 13.9 26.9 0.00 0.00 0.00 72 1010.6
20260505095245 62 300 14.8 26.9 0.00 0.00 0.00 72 1010.5
20260505094234 62 277 13.0 24.3 0.00 0.00 0.00 72 1010.4
20260505092038 63 282 14.8 28.7 0.00 0.00 0.00 71 1010.3
20260505091047 63 281 12.2 22.6 0.00 0.00 0.00 70 1010.4
20260505090023 63 279 14.8 30.4 0.00 0.00 0.00 70 1010.3
20260505085043 64 265 15.6 30.4 0.00 0.00 0.00 69 1010.1
20260505084024 64 286 13.9 26.9 0.00 0.00 0.00 69 1010.0
20260505081920 65 273 14.8 23.5 0.00 0.00 0.00 70 1009.9
20260505080854 65 283 13.0 22.6 0.00 0.00 0.00 70 1009.8
20260505075851 65 271 12.2 24.3 0.00 0.00 0.00 70 1009.7
20260505074851 65 271 13.9 24.3 0.00 0.00 0.00 70 1009.6
20260505073854 66 277 13.9 24.3 0.00 0.00 0.00 70 1009.6
20260505072917 66 279 12.2 24.3 0.00 0.00 0.00 69 1009.6
20260505071848 66 269 12.2 21.7 0.00 0.00 0.00 69 1009.4
20260505070902 67 293 12.2 26.9 0.00 0.00 0.00 68 1009.3
20260505065833 68 310 13.0 26.9 0.00 0.00 0.00 67 1009.2
20260505064851 68 302 13.9 24.3 0.00 0.00 0.00 66 1009.1
20260505063912 68 294 12.2 27.8 0.00 0.00 0.00 66 1009.1
20260505062931 69 304 13.9 27.8 0.00 0.00 0.00 65 1009.0
20260505061900 69 263 11.3 23.5 0.00 0.00 0.00 65 1009.1
20260505060854 69 328 13.9 26.9 0.00 0.00 0.00 65 1009.1
20260505055853 69 323 13.9 26.9 0.00 0.00 0.00 65 1009.0
20260505053717 68 244 13.9 23.5 0.00 0.00 0.00 64 1008.9
20260505052718 69 289 13.9 26.9 0.00 0.00 0.00 64 1008.9
20260505050548 69 311 13.9 25.2 0.00 0.00 0.00 62 1008.8
20260505041456 70 301 13.0 21.7 0.00 0.00 0.00 59 1008.2
20260505040457 70 293 13.0 23.5 0.00 0.00 0.00 58 1007.9
20260505034306 70 298 13.9 23.5 0.00 0.00 0.00 57 1007.5
20260505033301 71 262 13.0 23.5 0.00 0.00 0.00 56 1007.5
20260505032315 71 284 13.0 23.5 0.00 0.00 0.00 55 1007.3
20260505031325 72 306 12.2 21.7 0.00 0.00 0.00 54 1007.2
20260505030322 72 265 11.3 22.6 0.00 0.00 0.00 54 1007.2
20260505024222 73 273 12.2 22.6 0.00 0.00 0.00 53 1006.9
20260505023201 73 292 12.2 20.0 0.00 0.00 0.00 53 1007.0
20260505022155 73 283 9.6 20.0 0.00 0.00 0.00 52 1006.9
20260505021155 74 274 11.3 18.2 0.00 0.00 0.00 52 1007.0
20260505015047 74 284 10.4 21.7 0.00 0.00 0.00 51 1006.8
20260505014103 75 282 10.4 21.7 0.00 0.00 0.00 50 1006.8
20260505013104 75 286 10.4 20.9 0.00 0.00 0.00 50 1006.8
20260505012118 75 284 11.3 20.0 0.00 0.00 0.00 50 1006.8
20260505011134 75 320 11.3 19.1 0.00 0.00 0.00 49 1006.7
20260505010129 75 291 12.2 20.0 0.00 0.00 0.00 49 1006.7
20260505003949 76 283 11.3 20.9 0.00 0.00 0.00 48 1006.7
20260505003001 76 273 10.4 17.4 0.00 0.00 0.00 48 1006.7
20260505001937 76 285 12.2 20.0 0.00 0.00 0.00 48 1006.7
20260504234726 76 293 14.8 26.1 0.00 0.00 0.00 47 1006.8
20260504232547 76 286 13.9 23.5 0.00 0.00 0.00 47 1006.8
20260504230337 77 280 13.9 26.1 0.00 0.00 0.00 45 1006.9
20260504224158 77 259 12.2 22.6 0.00 0.00 0.00 46 1007.1
20260504223129 77 305 13.0 22.6 0.00 0.00 0.00 45 1007.2
20260504221007 77 263 13.0 25.2 0.00 0.00 0.00 45 1007.3
20260504220016 76 217 13.9 23.5 0.00 0.00 0.00 46 1007.3
20260504213817 76 289 11.3 20.0 0.00 0.00 0.00 46 1007.5
20260504212752 76 284 11.3 20.0 0.00 0.00 0.00 45 1007.6
20260504211814 77 250 9.6 19.1 0.00 0.00 0.00 45 1007.7
20260504210819 76 227 10.4 19.1 0.00 0.00 0.00 45 1007.7
20260504205756 76 270 9.6 19.1 0.00 0.00 0.00 46 1007.9
20260504204728 75 267 9.6 15.6 0.00 0.00 0.00 47 1008.0
20260504203744 76 274 9.6 17.4 0.00 0.00 0.00 47 1008.1
20260504201600 75 261 8.7 19.1 0.00 0.00 0.00 45 1008.2
20260504200543 74 277 9.6 16.5 0.00 0.00 0.00 48 1008.2